Location: Newark
(34.3481°N, 134.0494°E)
Time: 15:33:27
(UTC+00:00)

Vanguard 3 - Pass Details

Date: 22 January 2020
Orbit: 508 x 3263 km, 33.3° (Epoch: 17 February)

Event Time Altitude Azimuth Distance (km) Brightness Sun altitude
Rises 13:37:10 0° 280° (W) 6,754 12.2 -63.8°
Reaches altitude 10° 13:42:13 10° 279° (W) 5,406 11.5 -64.7°
Enters shadow 13:47:39 25° 276° (W) 3,890 10.6 -65.7°
